IW0HP-3 Weather Reports


time (UTC)temp
C
wind
direction
speed
KPH
gust
KPH
rain 1hr
cm
rain 24hr
cm
rain mn
cm
humidity
%
barometer
mb
20260507082659 19 0.0 0.0 0.00 0.00 0.00 61 1014.6
20260507080654 18 0.0 0.0 0.00 0.00 0.00 62 1015.0
20260507072643 18 0.0 0.0 0.00 0.00 0.00 65 1015.1
20260507070637 18 0.0 0.0 0.00 0.00 0.00 67 1015.2
20260507064632 17 0.0 0.0 0.00 0.00 0.00 69 1015.1
20260507062627 17 0.0 0.0 0.00 0.00 0.00 71 1015.0
20260507060623 17 0.0 0.0 0.00 0.00 0.00 70 1014.8
20260507054616 16 0.0 0.0 0.00 0.00 0.00 75 1014.9
20260507052611 16 0.0 0.0 0.00 0.00 0.00 78 1014.9
20260507050607 15 0.0 0.0 0.00 0.00 0.00 79 1014.9
20260507044601 15 0.0 0.0 0.00 0.00 0.00 79 1014.7
20260507040550 15 0.0 0.0 0.00 0.00 0.00 79 1014.7
20260507034545 15 0.0 0.0 0.00 0.00 0.00 81 1014.6
20260507032540 15 0.0 0.0 0.00 0.00 0.00 79 1014.7
20260507030534 15 0.0 0.0 0.00 0.00 0.00 80 1014.5
20260507024529 15 0.0 0.0 0.00 0.00 0.00 80 1014.6
20260507022523 15 0.0 0.0 0.00 0.00 0.00 80 1014.8
20260507020518 15 0.0 0.0 0.00 0.00 0.00 81 1014.7
20260507014514 15 0.0 0.0 0.00 0.00 0.00 81 1014.7
20260507012508 15 0.0 0.0 0.00 0.00 0.00 80 1014.5
20260507010502 15 0.0 0.0 0.00 0.00 0.00 79 1014.5
20260507004457 16 0.0 0.0 0.00 0.00 0.00 78 1014.7
20260507002452 16 0.0 0.0 0.00 0.00 0.00 75 1014.8
20260507000446 16 0.0 0.0 0.00 0.00 0.00 72 1014.5
20260506234441 16 0.0 0.0 0.00 0.00 0.00 72 1014.5
20260506232436 17 0.0 0.0 0.00 0.00 0.00 74 1014.5
20260506230431 17 0.0 0.0 0.00 0.00 0.00 75 1014.4
20260506224425 17 0.0 0.0 0.00 0.00 0.00 73 1014.3
20260506222420 17 0.0 0.0 0.00 0.00 0.00 73 1014.3
20260506220416 17 0.0 0.0 0.00 0.00 0.00 71 1014.2
20260506214410 17 0.0 0.0 0.00 0.00 0.00 69 1014.3
20260506212405 17 0.0 0.0 0.00 0.00 0.00 68 1014.4
20260506210400 17 0.0 0.0 0.00 0.00 0.00 64 1014.4
20260506204355 17 0.0 0.0 0.00 0.00 0.00 63 1014.3
20260506202349 18 0.0 0.0 0.00 0.00 0.00 61 1014.4
20260506200344 18 0.0 0.0 0.00 0.00 0.00 59 1014.3
20260506194339 18 0.0 0.0 0.00 0.00 0.00 57 1014.3
20260506192334 18 0.0 0.0 0.00 0.00 0.00 60 1014.1
20260506190328 18 0.0 0.0 0.00 0.00 0.00 62 1013.9
20260506184322 18 0.0 0.0 0.00 0.00 0.00 63 1013.7
20260506182318 18 0.0 0.0 0.00 0.00 0.00 63 1013.6
20260506180313 18 0.0 0.0 0.00 0.00 0.00 61 1013.6
20260506174307 18 0.0 0.0 0.00 0.00 0.00 65 1013.4
20260506172301 18 0.0 0.0 0.00 0.00 0.00 66 1013.4
20260506170257 18 0.0 0.0 0.00 0.00 0.00 64 1013.5
20260506164251 19 0.0 0.0 0.00 0.00 0.00 60 1013.3
20260506162246 19 0.0 0.0 0.00 0.00 0.00 61 1013.4
20260506160242 19 0.0 0.0 0.00 0.00 0.00 59 1013.3
20260506152231 20 0.0 0.0 0.00 0.00 0.00 57 1013.4
20260506150226 20 0.0 0.0 0.00 0.00 0.00 56 1013.3
20260506144220 20 0.0 0.0 0.00 0.00 0.00 54 1013.5
20260506142215 20 0.0 0.0 0.00 0.00 0.00 53 1013.5
20260506140209 21 0.0 0.0 0.00 0.00 0.00 53 1013.3
20260506134204 21 0.0 0.0 0.00 0.00 0.00 53 1013.3
20260506132158 21 0.0 0.0 0.00 0.00 0.00 51 1013.4
20260506130152 21 0.0 0.0 0.00 0.00 0.00 50 1013.4
20260506120136 22 0.0 0.0 0.00 0.00 0.00 46 1013.6
20260506114131 22 0.0 0.0 0.00 0.00 0.00 45 1013.7
20260506112127 22 0.0 0.0 0.00 0.00 0.00 43 1013.9
20260506110121 21 0.0 0.0 0.00 0.00 0.00 43 1014.0
20260506104116 21 0.0 0.0 0.00 0.00 0.00 43 1014.3
20260506102110 21 0.0 0.0 0.00 0.00 0.00 47 1014.2
20260506100105 20 0.0 0.0 0.00 0.00 0.00 47 1014.2
20260506094100 20 0.0 0.0 0.00 0.00 0.00 52 1014.0
20260506092054 20 0.0 0.0 0.00 0.00 0.00 55 1013.9
20260506090050 19 0.0 0.0 0.00 0.00 0.00 57 1013.9
20260506084044 18 0.0 0.0 0.00 0.00 0.00 61 1013.7